Weather History for Aswan, Egypt

Change the Weather History Date:

Wednesday, August 21, 2013

  Actual Average Record
Temperature  
Mean Temperature 93 °F -  
Max Temperature 106 °F 102 °F 111 °F (2006)
Min Temperature 80 °F 78 °F 77 °F (1997)
Cooling Degree Days 28    
Growing Degree Days 43 (Base 50)    
Moisture  
Dew Point 41 °F    
Average Humidity 16    
Maximum Humidity 30    
Minimum Humidity 5    
Precipitation  
Precipitation 0.00 in 0.00 in - ()
Sea Level Pressure  
Sea Level Pressure 29.75 in    
Wind  
Wind Speed 6 mph ()    
Max Wind Speed 17 mph    
Max Gust Speed -    
Visibility 6.0 miles    
Events      
Averages and records for this station are not official NWS values.
T = Trace of Precipitation, MM = Missing Value Source: Averaged Metar Reports

Daily Weather History Graph

Daily Weather History Graph

Search for Another Location

Airport:

Trip Planner

Search our weather history database for the weather conditions in past years. The results will help you decide how hot, cold, wet, or windy it might be!

Date:

Astronomy

Aug. 21, 2013 Rise Set
Actual Time 5:26 AM EET 6:17 PM EET
Civil Twilight 5:02 AM EET 6:40 PM EET
Nautical Twilight 4:35 AM EET 7:07 PM EET
Astronomical Twilight 4:07 AM EET 7:35 PM EET
Moon 6:25 PM EET (8/21) 5:34 AM EET (8/21)
Length of Visible Light 13h 37m
Length of Day
12h 50m
Full, 100% of the Moon is Illuminated
Aug 21
Full
Aug 28
Last Quarter
Sep 5
New
Sep 12
First Quarter
Sep 19
Full

Hourly Weather History & Observations

Time (EET) Temp. Dew Point Humidity Pressure Visibility Wind Dir Wind Speed Gust Speed Precip Events Conditions
12:00 AM 87.8 °F 37.4 °F 17% 29.74 in - NW 5.8 mph - N/A   Clear
1:00 AM 86.0 °F 39.2 °F 19% 29.74 in - NW 5.8 mph - N/A   Clear
2:00 AM 86 °F 42 °F 12% 29.72 in 6 mi NW 8.1 mph - -  
2:00 AM 86.0 °F 41.0 °F 20% 29.74 in - NW 8.1 mph - N/A   Clear
3:00 AM 84.2 °F 41.0 °F 22% 29.74 in - NW 4.6 mph - N/A   Clear
4:00 AM 84.2 °F 41.0 °F 22% 29.77 in - WNW 3.5 mph - N/A   Clear
5:00 AM 82.4 °F 41.0 °F 23% 29.77 in - SSW 2.3 mph - N/A   Clear
6:00 AM 82.4 °F 48.2 °F 30% 29.80 in - South 6.9 mph - N/A   Clear
7:00 AM 84.2 °F 42.8 °F 23% 29.80 in - SSW 4.6 mph - N/A   Clear
8:00 AM 90 °F 44 °F 12% 29.77 in 6 mi WSW 6.9 mph - -  
8:00 AM 89.6 °F 44.6 °F 21% 29.80 in - WSW 6.9 mph - N/A   Clear
9:00 AM 95.0 °F 42.8 °F 16% 29.83 in - West 2.3 mph - N/A   Clear
10:00 AM 96.8 °F 46.4 °F 18% 29.80 in - NNW 5.8 mph - N/A   Clear
11:00 AM 100.4 °F 44.6 °F 15% 29.80 in - WNW 10.4 mph - N/A   Clear
12:00 PM 102.2 °F 42.8 °F 13% 29.77 in - WNW 9.2 mph - N/A   Clear
1:00 PM 104.0 °F 42.8 °F 12% 29.77 in - West 17.3 mph - N/A   Clear
2:00 PM 105 °F 40 °F 5% 29.69 in 6 mi WNW 13.8 mph - -  
2:00 PM 105.8 °F 41.0 °F 11% 29.74 in - WNW 13.8 mph - N/A   Clear
3:00 PM 105.8 °F 37.4 °F 10% 29.71 in - WNW 12.7 mph - N/A   Clear
4:00 PM 105.8 °F 35.6 °F 9% 29.71 in - WNW 12.7 mph - N/A   Clear
5:00 PM 105.8 °F 35.6 °F 9% 29.71 in - WNW 13.8 mph - N/A   Clear
6:00 PM 104.0 °F 37.4 °F 10% 29.71 in - NW 8.1 mph - N/A   Clear
7:00 PM 100.4 °F 37.4 °F 11% 29.71 in - NNW 5.8 mph - N/A   Clear
8:00 PM 98 °F 38 °F 6% 29.70 in 6 mi North 5.8 mph - -  
8:00 PM 96.8 °F 39.2 °F 14% 29.74 in - North 5.8 mph - N/A   Clear
9:00 PM 95.0 °F 41.0 °F 15% 29.74 in - NNW 6.9 mph - N/A   Clear
10:00 PM 93.2 °F 44.6 °F 19% 29.74 in - NNW 5.8 mph - N/A   Clear
11:00 PM 91.4 °F 46.4 °F 21% 29.74 in - North 5.8 mph - N/A   Clear